Wind_Speed
31 32 33 34 35 35 34 32 31 30 30 30 31 32 32 32 32 35 35 32 29 28 28 28 28 28 27 26 26 25 24 23 21 20 19 18 17 16 15 14 13 12 11 10 9 9 8 7 7
34 35 36 37 38 37 35 33 34 33 33 34 35 35 35 35 34 36 36 34 31 30 30 30 30 30 29 29 28 27 26 25 23 22 21 20 19 18 17 15 14 13 12 11 10 10 9 8 8
37 38 39 41 40 39 36 36 36 37 37 37 38 37 37 37 37 39 38 35 34 33 33 32 32 32 32 31 30 29 28 27 26 25 24 22 21 20 19 17 16 15 14 13 12 11 10 9 9
40 41 43 44 43 40 39 39 39 40 41 40 41 41 40 39 40 41 39 38 36 35 35 35 34 34 34 33 32 31 30 29 28 27 26 25 23 22 21 19 18 16 15 14 13 12 11 11 10
43 44 46 47 45 43 42 42 42 43 43 43 44 43 43 42 43 42 42 40 39 38 38 37 37 36 36 35 34 33 33 31 30 29 28 27 26 24 22 21 19 18 17 15 14 13 13 12 11
45 46 48 49 46 45 45 45 45 46 45 45 46 45 45 45 45 44 44 43 42 41 40 39 39 39 38 38 37 36 35 34 33 31 30 29 28 26 24 23 21 19 18 17 16 15 14 13 12
47 48 50 50 49 47 47 47 47 48 48 48 47 47 47 47 47 46 46 45 44 43 43 42 41 41 40 40 39 38 38 37 35 34 32 31 30 27 25 24 22 21 19 18 17 16 15 14 13
48 50 51 51 51 50 49 49 49 50 50 49 49 49 48 49 49 48 48 48 46 45 45 44 43 43 42 42 41 40 40 39 37 36 34 33 31 29 27 25 24 22 21 19 18 17 16 15 14
49 51 53 52 52 51 51 51 50 51 51 50 50 50 49 51 51 50 49 49 48 47 47 46 45 45 44 43 43 42 41 41 39 38 36 35 33 31 29 27 25 24 22 21 20 19 17 16 15
49 52 52 52 52 51 50 51 50 51 52 52 51 50 49 51 52 51 50 50 49 48 48 48 47 47 46 45 44 44 43 42 41 40 38 37 35 33 31 29 27 25 24 22 21 20 19 17 16
48 50 50 51 51 51 51 50 48 50 51 51 52 51 50 51 52 51 51 50 50 49 49 49 49 48 48 47 46 45 44 44 43 42 40 38 37 35 33 31 29 27 25 24 23 21 20 19 18
45 46 48 48 47 48 49 48 47 47 49 49 51 51 51 50 51 51 51 51 51 51 50 50 50 50 50 49 47 46 46 45 44 43 42 40 38 36 34 32 30 28 27 25 24 23 21 20 19
41 42 44 45 45 46 47 47 46 45 46 46 48 50 51 51 50 51 52 52 51 51 51 51 51 51 51 50 49 48 47 46 45 44 43 41 40 38 36 34 32 30 28 27 25 24 23 22 21
38 39 40 42 43 45 46 45 45 44 45 45 47 48 49 49 50 50 51 52 52 52 52 52 52 52 52 51 50 49 48 47 46 45 44 43 41 39 37 36 34 32 30 28 27 26 24 23 22
36 37 37 39 41 42 45 44 43 42 42 43 44 45 45 46 48 49 50 50 51 52 52 52 53 53 52 52 51 50 49 49 47 46 45 44 43 41 39 37 35 33 32 30 28 27 26 24 23
35 36 35 35 38 39 43 43 39 40 42 42 42 42 43 45 46 47 49 49 51 52 52 52 53 53 53 53 52 51 50 49 48 47 46 45 44 42 40 39 37 35 33 31 30 29 27 26 24
34 34 34 33 34 36 40 41 39 38 41 41 40 40 41 43 44 45 47 48 50 51 52 52 53 54 54 53 52 52 51 51 49 47 46 46 45 43 41 40 38 37 35 33 31 30 29 27 26
32 32 31 31 32 35 37 38 37 38 39 39 39 39 39 41 42 43 46 47 49 51 52 52 52 54 54 54 53 52 51 51 50 48 47 46 45 44 42 41 39 38 36 34 33 32 30 29 28
31 31 30 30 29 34 36 35 34 36 37 37 38 38 37 40 42 42 44 46 47 50 51 52 53 53 54 54 54 53 51 50 50 49 48 47 45 44 43 42 40 39 37 36 34 33 32 31 29
30 30 29 29 29 31 33 33 32 32 34 35 35 36 35 37 40 41 43 45 46 48 49 51 52 53 53 54 54 53 52 50 50 49 47 47 45 44 43 42 41 40 39 37 36 35 33 32 31
29 28 30 30 29 30 33 33 30 29 30 33 34 35 35 35 37 40 42 44 45 46 49 50 52 52 52 53 54 53 53 51 51 50 48 48 47 45 44 42 41 40 39 38 37 35 34 33 32
28 27 29 29 29 30 31 33 28 26 26 29 30 32 34 35 37 39 40 42 44 44 47 49 51 51 52 52 54 53 53 51 50 50 50 48 48 46 44 43 42 41 40 39 38 36 35 34 33
29 28 29 28 29 29 28 31 26 24 24 25 26 29 32 35 36 37 39 40 42 44 46 48 49 51 51 52 52 53 53 51 50 50 50 48 47 46 45 43 42 41 41 40 38 37 36 35 34
30 30 29 29 29 29 27 29 28 25 24 25 25 27 30 34 35 36 38 39 41 43 45 47 47 49 51 52 52 52 53 53 53 51 51 48 47 47 46 45 43 42 42 41 39 38 37 36 35
30 30 30 30 29 28 27 29 26 26 26 26 26 26 28 31 34 35 37 39 40 42 44 46 47 47 48 50 52 53 53 53 53 51 51 49 48 46 46 45 44 43 42 41 40 39 37 37 36
29 28 28 30 30 29 27 28 26 25 26 27 27 28 28 28 31 34 36 37 40 42 43 45 47 47 47 48 50 52 53 53 53 52 51 49 47 47 45 45 44 43 43 42 41 40 39 38 37
28 28 27 28 30 30 29 28 28 27 26 26 27 27 28 29 31 34 34 36 39 42 44 45 47 47 47 47 48 51 52 52 51 52 52 49 46 45 46 45 44 44 43 43 41 41 40 39 38
27 27 27 27 29 30 30 28 28 28 27 27 28 28 28 29 31 33 35 35 37 41 43 45 46 47 45 47 48 49 51 52 51 51 51 48 46 44 44 44 44 44 43 43 42 41 41 40 39
27 27 27 29 29 31 32 30 28 28 29 29 29 30 31 31 32 33 35 36 38 40 42 45 46 47 46 47 48 49 51 51 50 49 47 48 48 47 46 43 42 42 42 42 42 42 41 40 40
27 27 27 29 30 32 33 31 27 28 29 30 31 31 31 32 34 35 36 37 39 40 41 44 47 47 46 47 49 49 49 50 49 49 48 47 47 46 45 44 44 43 42 41 41 41 41 40 40
Wind_Direction
269 268 267 265 264 264 264 265 264 262 259 257 254 252 251 251 250 250 249 248 245 241 240 238 238 238 236 235 234 234 234 235 233 232 234 236 237 238 242 246 248 250 252 255 257 258 261 264 269
268 267 267 265 265 266 266 266 264 262 260 257 255 253 252 250 250 251 250 248 245 242 241 240 239 238 237 236 235 234 235 235 234 234 234 236 237 238 242 245 247 249 251 254 255 255 259 262 269
269 267 267 266 266 267 268 266 264 261 259 257 255 254 252 251 250 251 251 249 245 242 241 240 239 238 237 237 236 235 235 235 235 235 235 236 237 238 241 245 246 248 251 253 253 253 257 261 268
269 267 266 266 267 267 268 266 264 262 260 257 256 253 252 251 250 251 252 250 246 243 242 241 240 238 238 237 237 237 236 236 236 236 236 236 237 238 240 244 246 247 250 251 252 252 254 260 267
269 268 267 267 268 268 267 265 263 262 260 258 256 254 252 250 249 249 250 249 247 244 242 240 239 238 238 237 237 237 237 236 236 236 237 237 237 238 241 242 244 246 248 251 251 251 253 259 264
269 268 268 269 269 268 267 265 263 261 259 257 256 253 251 250 249 248 248 248 246 244 242 241 240 239 238 237 237 237 237 237 236 236 236 237 238 239 240 242 242 244 247 249 250 250 252 257 262
270 269 269 270 269 267 266 265 262 260 258 256 254 253 250 249 248 248 248 247 246 244 242 240 239 239 238 238 237 237 237 237 236 235 235 236 237 238 240 241 240 242 245 248 249 249 251 255 260
272 270 269 270 269 267 265 263 261 259 257 256 253 252 251 250 249 248 247 246 245 243 242 240 239 238 238 238 237 237 237 237 236 235 235 235 236 237 239 239 239 240 244 247 248 249 250 254 259
273 271 270 269 268 266 263 261 259 257 256 254 252 252 252 250 249 247 246 246 245 243 242 240 239 238 238 237 237 237 236 236 235 234 233 234 235 236 238 238 239 240 243 245 247 248 248 253 259
272 271 271 269 267 265 263 260 259 257 256 253 252 251 251 250 249 247 245 245 244 243 241 240 239 238 237 237 236 236 236 235 234 233 233 233 234 236 237 237 238 240 242 244 245 247 249 253 258
273 272 270 268 267 264 262 259 258 258 255 254 252 251 251 251 249 247 244 243 242 241 240 239 238 237 236 236 235 235 234 234 233 233 233 234 235 235 236 237 238 239 241 243 244 246 249 252 256
275 272 271 269 266 263 262 259 257 257 256 254 252 250 250 250 249 247 244 242 241 240 239 238 237 236 235 234 233 233 233 233 233 232 233 233 234 235 236 236 237 239 240 242 243 245 248 251 255
277 275 272 270 267 264 261 259 258 257 254 252 250 250 249 248 248 246 243 241 239 238 237 236 235 234 234 233 233 232 231 232 232 233 233 233 234 234 235 235 236 238 239 241 242 244 248 251 254
279 275 274 272 266 263 261 260 258 255 252 252 251 250 250 249 247 245 243 241 238 237 235 234 233 232 232 232 232 231 230 231 232 232 232 232 233 233 234 235 235 237 238 240 242 244 247 251 254
283 279 277 273 268 265 262 259 257 256 252 252 250 250 250 249 246 244 241 239 236 235 233 232 231 230 230 230 230 229 229 230 231 231 232 232 232 232 233 233 235 236 237 239 242 244 247 250 254
287 284 281 278 271 267 264 261 259 258 253 250 250 250 251 249 246 243 240 237 234 233 231 230 228 228 228 229 229 228 228 229 230 232 232 232 232 232 232 233 234 235 236 238 242 244 247 250 254
291 288 285 283 275 271 269 266 262 260 255 251 251 251 251 248 244 241 239 237 234 232 230 229 227 226 227 228 228 227 227 228 229 230 232 231 231 231 232 233 234 235 236 238 242 244 247 250 254
294 290 288 287 281 276 272 269 265 260 255 252 251 251 250 246 242 240 238 236 234 231 229 228 227 226 226 226 227 227 227 227 227 228 230 231 230 231 232 234 234 235 236 239 242 244 247 250 253
296 291 290 291 286 282 277 273 268 262 256 252 251 252 251 247 242 238 238 236 234 230 228 228 226 226 226 225 226 226 226 226 227 228 230 231 231 231 232 234 234 235 237 239 242 245 247 250 253
297 292 292 294 291 286 282 277 270 263 256 253 253 252 250 246 243 239 237 236 232 230 227 226 225 225 225 225 225 226 226 226 227 227 230 231 231 232 233 233 235 236 237 239 242 245 247 250 253
298 294 294 296 295 290 285 281 274 266 259 254 253 252 249 245 242 239 236 234 230 229 227 225 225 224 225 225 224 225 225 226 228 227 229 232 232 232 232 233 235 236 238 240 243 245 247 250 253
298 298 297 296 295 293 289 286 278 270 263 258 254 252 248 244 241 238 235 233 229 228 225 224 224 224 224 224 224 224 225 226 227 227 228 231 232 231 232 233 235 237 238 241 243 245 247 250 253
297 297 298 297 295 292 289 285 280 273 268 262 256 253 249 245 242 238 235 232 229 227 225 223 224 223 223 224 224 224 225 226 226 226 227 230 232 233 233 234 236 237 239 241 243 246 248 251 254
298 298 298 298 297 294 290 285 281 275 268 265 259 256 250 245 242 238 234 231 228 226 224 223 224 223 223 224 224 224 224 225 226 228 228 230 232 233 234 236 237 238 240 242 244 246 249 252 255
298 300 301 301 299 296 289 282 282 279 271 265 260 257 254 247 241 237 234 231 227 225 224 223 223 223 223 224 224 225 225 225 226 228 228 230 232 233 234 236 238 239 240 242 245 247 250 252 255
300 300 301 299 297 294 287 281 281 277 273 267 261 258 254 248 241 236 234 232 227 225 224 224 223 224 225 224 224 224 225 225 226 228 229 230 232 234 235 236 238 239 241 243 245 247 250 253 256
301 298 297 296 294 293 290 286 281 276 273 268 263 260 255 249 241 235 233 232 227 225 225 224 224 225 226 225 223 223 223 224 226 228 229 230 231 233 234 235 237 239 241 243 246 248 250 253 256
300 298 295 293 293 292 289 285 280 275 273 268 264 260 254 248 241 237 233 232 228 225 225 225 225 225 225 225 224 222 223 224 226 227 227 229 231 233 234 235 237 239 241 243 246 248 251 254 256
301 299 297 292 288 288 288 287 283 275 272 271 266 259 253 248 241 237 234 233 228 225 226 226 225 225 225 225 224 223 224 224 225 226 228 230 232 235 235 235 238 240 241 243 246 249 251 253 256
297 296 295 292 290 287 286 287 283 277 272 271 268 260 253 249 243 239 237 235 231 228 227 226 226 225 224 224 224 224 225 225 226 227 228 231 232 234 236 236 238 240 242 243 245 248 251 254 257
Height
5804 5804 5804 5804 5805 5805 5807 5811 5813 5816 5817 5819 5820 5822 5824 5826 5828 5830 5830 5832 5836 5839 5841 5843 5845 5847 5849 5851 5853 5855 5857 5858 5859 5861 5862 5863 5864 5865 5866 5867 5868 5868 5869 5869 5869 5869 5869 5869 5869
5797 5797 5797 5797 5797 5797 5801 5805 5807 5809 5811 5812 5814 5815 5817 5819 5821 5821 5822 5827 5831 5834 5836 5838 5840 5842 5844 5847 5849 5851 5853 5855 5856 5858 5859 5860 5862 5863 5864 5865 5866 5866 5867 5867 5868 5868 5868 5868 5868
5789 5789 5789 5788 5789 5791 5795 5798 5799 5801 5803 5805 5806 5808 5811 5813 5815 5814 5816 5820 5825 5828 5830 5833 5835 5837 5839 5842 5844 5846 5849 5851 5853 5854 5856 5857 5859 5860 5862 5863 5864 5864 5865 5865 5866 5867 5867 5867 5867
5781 5780 5779 5780 5780 5785 5788 5790 5791 5792 5793 5796 5798 5800 5803 5806 5807 5808 5810 5814 5818 5821 5824 5827 5829 5832 5834 5837 5839 5842 5844 5846 5848 5851 5852 5854 5856 5857 5859 5860 5861 5862 5863 5863 5864 5865 5865 5865 5865
5771 5770 5769 5769 5772 5776 5778 5780 5781 5782 5784 5786 5788 5791 5794 5797 5798 5801 5803 5806 5810 5814 5817 5820 5823 5826 5828 5831 5834 5837 5839 5841 5844 5846 5848 5850 5852 5854 5855 5857 5858 5859 5860 5861 5862 5862 5863 5863 5863
5760 5760 5758 5758 5763 5767 5768 5769 5770 5771 5773 5775 5777 5780 5784 5787 5789 5792 5795 5798 5802 5806 5809 5813 5816 5819 5822 5825 5828 5830 5833 5836 5838 5841 5844 5846 5848 5850 5852 5853 5855 5856 5857 5858 5859 5860 5861 5861 5861
5749 5747 5746 5748 5751 5754 5757 5757 5758 5759 5761 5764 5766 5769 5773 5775 5778 5782 5786 5789 5793 5797 5801 5805 5808 5812 5815 5818 5821 5824 5827 5830 5833 5836 5839 5841 5843 5846 5848 5849 5851 5853 5854 5855 5856 5857 5858 5858 5859
5735 5734 5733 5734 5737 5741 5744 5744 5745 5746 5749 5752 5754 5757 5762 5765 5768 5772 5775 5779 5784 5788 5792 5796 5800 5803 5807 5811 5814 5817 5821 5824 5827 5830 5833 5836 5838 5841 5843 5845 5847 5849 5851 5852 5853 5854 5855 5856 5856
5721 5720 5719 5722 5723 5727 5729 5729 5732 5733 5735 5739 5741 5746 5750 5753 5756 5761 5765 5769 5774 5778 5782 5786 5791 5795 5799 5803 5806 5810 5813 5817 5820 5824 5827 5830 5833 5836 5839 5841 5843 5845 5847 5848 5850 5851 5852 5853 5853
5706 5704 5706 5708 5709 5710 5713 5715 5717 5719 5722 5726 5730 5733 5736 5740 5744 5748 5753 5758 5763 5768 5772 5777 5781 5786 5790 5794 5798 5802 5806 5810 5813 5817 5821 5824 5828 5831 5834 5836 5839 5841 5843 5845 5846 5848 5849 5849 5850
5691 5690 5692 5692 5693 5695 5697 5700 5703 5705 5709 5713 5717 5721 5723 5727 5731 5736 5741 5746 5751 5756 5761 5766 5771 5776 5780 5785 5789 5794 5798 5802 5806 5811 5815 5818 5822 5825 5829 5832 5834 5837 5839 5841 5842 5844 5845 5846 5847
5677 5676 5676 5677 5679 5681 5682 5686 5689 5691 5695 5699 5702 5706 5709 5713 5718 5723 5728 5733 5738 5743 5749 5755 5760 5765 5770 5775 5780 5785 5790 5794 5799 5804 5808 5812 5816 5820 5823 5827 5829 5832 5834 5836 5838 5840 5841 5842 5843
5664 5664 5663 5664 5666 5667 5669 5672 5674 5679 5683 5685 5688 5691 5695 5700 5704 5709 5714 5719 5725 5731 5737 5743 5749 5755 5760 5765 5771 5776 5782 5786 5791 5796 5801 5805 5809 5814 5818 5821 5824 5827 5829 5832 5834 5835 5837 5838 5839
5653 5653 5652 5652 5653 5655 5656 5659 5661 5666 5669 5672 5675 5679 5683 5687 5691 5696 5700 5706 5712 5718 5725 5731 5737 5744 5750 5755 5762 5768 5773 5778 5783 5788 5793 5798 5802 5807 5811 5815 5818 5821 5824 5826 5829 5831 5833 5834 5835
5643 5642 5643 5642 5641 5643 5644 5647 5649 5652 5655 5659 5663 5666 5670 5674 5678 5683 5688 5693 5699 5705 5712 5719 5726 5732 5739 5745 5752 5758 5764 5770 5775 5780 5785 5790 5795 5800 5804 5808 5812 5816 5818 5821 5824 5826 5828 5829 5830
5635 5633 5633 5633 5631 5631 5633 5635 5640 5639 5642 5647 5651 5655 5658 5662 5666 5671 5676 5681 5687 5693 5699 5706 5714 5722 5729 5735 5742 5749 5755 5760 5766 5771 5777 5782 5787 5793 5797 5802 5806 5810 5813 5816 5818 5821 5822 5824 5825
5626 5624 5623 5624 5623 5622 5622 5624 5629 5629 5631 5635 5639 5643 5647 5650 5654 5659 5664 5669 5675 5681 5688 5695 5703 5710 5718 5725 5732 5739 5745 5751 5758 5763 5769 5774 5779 5785 5790 5795 5799 5803 5807 5810 5812 5815 5817 5819 5820
5619 5617 5616 5616 5615 5614 5614 5615 5618 5619 5620 5624 5628 5632 5635 5638 5644 5648 5653 5658 5664 5670 5677 5685 5692 5699 5707 5715 5722 5729 5735 5742 5749 5755 5760 5765 5772 5777 5783 5788 5792 5796 5800 5803 5806 5809 5811 5813 5814
5613 5611 5610 5610 5608 5606 5606 5607 5609 5610 5611 5614 5618 5621 5624 5628 5633 5638 5643 5648 5653 5659 5667 5675 5682 5689 5696 5704 5712 5720 5726 5733 5740 5747 5753 5758 5763 5769 5775 5780 5785 5790 5794 5797 5800 5802 5805 5807 5808
5607 5605 5604 5604 5602 5599 5598 5600 5601 5601 5602 5605 5607 5611 5614 5618 5622 5628 5633 5638 5643 5650 5657 5664 5672 5679 5686 5694 5702 5711 5718 5725 5731 5739 5745 5751 5756 5762 5768 5773 5778 5782 5786 5790 5793 5796 5798 5800 5802
5602 5600 5598 5596 5596 5594 5591 5593 5594 5594 5595 5597 5599 5602 5605 5609 5613 5618 5623 5628 5634 5640 5647 5655 5662 5670 5677 5685 5693 5701 5708 5715 5723 5730 5736 5743 5749 5755 5760 5766 5771 5775 5779 5783 5786 5789 5791 5794 5795
5598 5595 5592 5590 5588 5588 5586 5583 5589 5588 5589 5590 5593 5595 5597 5601 5605 5609 5614 5619 5625 5631 5638 5645 5653 5661 5669 5676 5684 5692 5700 5708 5715 5722 5728 5735 5741 5747 5752 5758 5763 5767 5772 5776 5779 5782 5784 5787 5788
5592 5590 5588 5586 5583 5582 5582 5578 5582 5582 5583 5584 5586 5588 5590 5593 5597 5601 5606 5611 5617 5623 5630 5638 5645 5652 5660 5668 5675 5683 5692 5699 5706 5713 5720 5727 5733 5739 5745 5750 5755 5760 5764 5768 5772 5775 5777 5780 5781
5587 5585 5583 5581 5578 5577 5577 5575 5576 5577 5578 5579 5580 5581 5584 5586 5590 5594 5599 5604 5610 5616 5623 5630 5637 5644 5652 5659 5667 5675 5683 5690 5698 5705 5712 5718 5725 5731 5737 5742 5747 5752 5756 5760 5764 5767 5770 5772 5774
5582 5579 5577 5574 5572 5573 5573 5571 5573 5573 5573 5573 5575 5576 5577 5580 5584 5588 5592 5597 5603 5609 5616 5622 5629 5636 5644 5651 5659 5667 5675 5682 5690 5697 5704 5711 5717 5723 5729 5734 5739 5744 5748 5752 5756 5759 5762 5764 5766
5578 5575 5573 5570 5568 5567 5568 5567 5569 5568 5568 5569 5569 5571 5572 5574 5577 5581 5586 5591 5597 5603 5609 5615 5622 5628 5635 5642 5650 5658 5666 5674 5681 5688 5696 5702 5709 5715 5721 5726 5731 5735 5740 5744 5748 5751 5754 5756 5758
5572 5570 5569 5565 5562 5561 5562 5562 5563 5563 5563 5564 5564 5565 5566 5568 5571 5575 5579 5584 5590 5596 5602 5608 5615 5621 5627 5633 5641 5648 5657 5665 5672 5679 5686 5693 5700 5706 5712 5717 5722 5726 5731 5735 5739 5743 5746 5748 5750
5568 5566 5564 5560 5557 5555 5556 5557 5557 5557 5557 5558 5558 5558 5560 5562 5565 5569 5573 5578 5583 5588 5595 5600 5607 5613 5619 5625 5632 5640 5648 5656 5664 5671 5678 5685 5691 5697 5703 5708 5713 5718 5722 5726 5730 5734 5737 5740 5742
5563 5561 5558 5555 5553 5551 5548 5553 5552 5551 5551 5551 5551 5552 5554 5556 5559 5562 5566 5571 5575 5581 5587 5593 5599 5605 5611 5618 5625 5632 5640 5648 5655 5663 5669 5676 5682 5688 5694 5699 5704 5709 5714 5718 5722 5725 5728 5731 5733
5557 5555 5553 5551 5548 5545 5542 5546 5546 5545 5544 5544 5544 5545 5547 5549 5552 5555 5559 5563 5568 5573 5579 5585 5591 5597 5603 5610 5617 5625 5632 5640 5647 5655 5661 5667 5673 5679 5685 5690 5695 5700 5705 5709 5713 5716 5719 5722 5724